sat.trackr.live / text

‹ back to catalog

STARLINK-4326

NORAD 53081 · 2022-077AQ

PAYLOAD ACTIVE UNKNOWN

§ Identity

Operator
Country
US
Launch date
2022-07-11
Launch site
AFWTR
Launch vehicle
Mass (kg)
RCS (m²)

Purposes: comms

External: N2YO · Heavens-Above · Gunter

§ Orbital elements

Epoch: 2026-05-25T01:47:10.802112Z

Period
95.64 min
Inclination
97.4480°
Eccentricity
0.0001479
Mean motion
15.05657569 rev/d
Perigee alt
548.5 km
Apogee alt
550.5 km
Semi-major
6,927.6 km
B*
-9.3459e-5
RAAN
324.9839°
Arg perigee
83.6483°
Mean anomaly
276.4913°
Rev number
21,240

§ Raw data

STARLINK-43261 53081U 22077AQ  26145.07443058 -.00001407  00000+0 -93459-4 0  99912 53081  97.4480 324.9839 0001479  83.6483 276.4913 15.05657569212402

JSON: /api/v1/satellites/53081 · /tle

For live sub-satellite position, see the globe view (requires WebGL).

§ Visibility from observer

Set your observer location to see the next 7 days of passes ≥ 10°. The values pass through the URL so the page stays shareable.

No JS? Fill the form by hand. The geolocation button needs JavaScript.